Location: Karaa?a�
(36.7158°N, 30.4165°E)
Time: 00:51:21
(UTC+00:00)

Daily predictions for brighter satellites

Satellite Brightness Start Highest point End
(mag) Time Altitude Azimuth Time Altitude Azimuth Time Altitude Azimuth
Lacrosse 5 2.4 00:05:55 54° E 00:05:55 54° E 00:10:12 10° NE
ARGOS Delta rocket 4.2 00:04:13 10° NNE 00:07:57 60° NNE 00:07:57 60° NNE
BREEZE-M R/B 4.4 00:04:50 13° NW 00:08:53 59° NE 00:18:19 10° ESE
Tianhe-1 4.0 00:14:52 17° NE 00:14:52 17° NE 00:15:48 10° ENE
Cosmos 1459 Rocket 4.4 00:07:49 10° N 00:14:01 60° E 00:16:37 35° SE
Cosmos 1470 4.3 00:13:00 10° N 00:15:08 31° N 00:15:08 31° N
Cosmos 2173 Rocket 4.1 00:13:34 10° N 00:19:42 68° E 00:22:08 38° SSE
SL-16 R/B 2.7 00:21:03 52° W 00:21:03 52° W 00:26:48 10° NNW
Cosmos 1269 Rocket 3.9 00:16:21 10° NNW 00:21:19 75° WNW 00:21:19 75° WNW
IRS-1D 3.5 00:18:06 10° NNE 00:23:27 86° ESE 00:23:53 76° S
Okean 1 Rocket 4.0 00:20:20 10° NNW 00:23:12 38° NNW 00:23:12 38° NNW
Cosmos 1802 Rocket 4.4 00:20:09 10° N 00:26:14 60° E 00:29:47 25° SSE
Cosmos 44 Rocket 3.8 00:23:32 10° NNW 00:28:42 63° ENE 00:33:43 10° SE
Meteor 1-28 Rocket 3.9 00:32:37 51° NNE 00:32:37 51° NNE 00:35:37 10° N
Cosmos 1726 3.8 00:28:21 10° NNW 00:30:09 27° NNW 00:30:09 27° NNW
Cosmos 2100 Rocket 3.9 00:28:44 10° N 00:35:02 84° W 00:37:12 44° S
Cosmos 2227 Rocket 4.4 00:34:19 10° N 00:38:57 25° ENE 00:43:33 10° ESE
Cosmos 1626 3.8 00:39:13 26° ESE 00:40:02 28° E 00:43:15 10° NNE
ADEOS Rocket 3.4 00:35:17 20° SSE 00:40:32 85° ENE 00:48:11 10° NNW
Cosmos 2123 Rocket 4.0 00:38:22 37° S 00:40:55 75° E 00:47:06 10° N
Gbstr 26 Del rocket 3.2 00:37:02 10° NW 00:42:51 70° SW 00:47:28 10° SE
DELTA 2 DEB (DPAF) 4.3 00:43:46 58° WNW 00:43:46 58° WNW 00:47:41 10° NNW
Cosmos 2297 Rocket 3.7 00:38:08 10° N 00:43:19 36° ENE 00:48:28 10° SE
GP-B 3.8 00:40:48 10° NNE 00:45:07 50° E 00:46:51 32° SSE
Cosmos 1953 3.0 00:44:19 10° N 00:48:12 51° E 00:49:36 34° SE
Cosmos 371 Rocket 3.3 00:51:21 51° S 00:52:32 78° ESE 00:57:25 10° NNE
Spot 1 4.1 00:51:41 47° SSE 00:52:58 89° ENE 00:57:38 10° NNW
Cosmos 1025 Rocket 3.2 00:54:22 45° SSE 00:55:33 68° E 00:59:52 10° NNE
OAO 3 Rocket 3.1 00:55:21 59° WSW 00:56:04 70° S 01:00:58 10° ESE
IRS-P3 4.1 00:50:50 10° NNE 00:56:13 82° ESE 00:58:25 37° S
NOSS 2-1 (C) 4.4 00:51:38 10° NW 00:57:11 83° WSW 01:05:07 10° SSE
CZ-2D R/B 3.9 00:54:29 10° NNW 00:57:54 17° WNW 00:58:21 17° WNW
Cosmos 1544 Rocket 4.2 00:55:36 10° N 00:59:53 53° E 01:03:33 14° SSE
Lacrosse 4 Rocket 3.7 01:00:20 11° SSE 01:03:25 21° ESE 01:06:45 10° ENE
NOSS 2-1 (D) 4.5 00:58:21 10° NW 01:03:55 74° WSW 01:11:50 10° SSE
CZ-2C R/B 1.4 01:06:40 41° SE 01:06:40 41° SE 01:09:12 10° E
ARIANE 5 R/B 2.5 01:01:29 10° NNE 01:06:41 80° ESE 01:09:21 29° S
Cosmos 1864 Rocket 4.4 01:01:50 10° N 01:08:14 85° W 01:14:02 13° S
CZ-4C R/B 3.7 01:10:08 47° SW 01:10:51 52° W 01:15:07 10° NNW
Cosmos 1455 Rocket 2.9 01:06:54 10° NNW 01:11:12 64° W 01:12:27 42° SSW
CZ-3B R/B 4.0 01:10:37 11° SSE 01:11:16 11° SE 01:12:48 10° SE
Cosmos 1536 Rocket 4.1 01:09:14 21° SSE 01:11:58 56° E 01:16:16 10° NNE
CZ-2D R/B 3.8 01:09:57 10° NNE 01:14:17 68° ESE 01:16:52 24° S
Meteor 2-11 Rocket 4.5 01:08:17 10° NNW 01:14:19 58° W 01:18:06 23° SSW
Cosmos 2219 3.9 01:08:43 10° NNW 01:14:20 57° ENE 01:19:57 10° SE
KORONAS-FOTON 4.3 01:17:09 39° W 01:17:21 39° W 01:21:03 10° N
IUS-18 SRM-1 3.6 01:17:28 27° S 01:18:06 28° SSE 01:24:50 10° ESE
SL-08 R/B 4.5 01:13:39 10° N 01:19:56 71° W 01:26:11 10° S
Cosmos 1674 3.5 01:21:51 33° W 01:21:59 33° W 01:25:30 10° NNW
CZ-2C R/B 4.0 01:22:01 10° NNE 01:25:48 42° E 01:29:37 10° S
COSMOS 2441 4.4 01:22:10 10° N 01:27:01 63° WNW 01:29:44 26° SSW
Timation 2 Rocket 4.1 01:22:04 10° NNW 01:28:02 73° ENE 01:34:03 10° SSE
Cosmos 2061 Rocket 4.2 01:22:16 10° NNW 01:28:22 54° W 01:33:41 14° SSW
Cosmos 1315 Rocket 3.7 01:25:31 10° NNW 01:28:56 29° W 01:28:56 29° W
IDEFIX/ARIANE 42P 3.3 01:26:20 10° N 01:31:05 36° WNW 01:33:19 25° WSW
Cosmos 2360 4.3 01:28:08 18° SSW 01:32:30 76° ESE 01:38:15 10° NNE
ADEOS II 3.8 01:31:26 10° NNW 01:34:39 17° WNW 01:36:09 15° W
Cosmos 1725 Rocket 4.2 01:29:44 10° NNW 01:35:47 51° W 01:41:32 11° SSW
Cosmos 1624 Rocket 4.4 01:32:52 11° S 01:37:52 63° ESE 01:43:08 10° NNE
Cosmos 614 Rocket 3.8 01:33:57 10° NNW 01:39:02 81° WSW 01:44:08 10° SSE
Cosmos 1300 3.5 01:35:44 10° N 01:39:28 53° E 01:43:11 10° SSE
Cosmos 1656 4.4 01:39:20 22° WSW 01:42:05 35° WNW 01:47:05 10° N
USA 276 3.5 01:41:48 20° WNW 01:43:10 28° NNW 01:45:58 10° NNE
Milstar 3 4.1 01:42:20 17° SW 01:43:46 18° SSW 01:49:00 10° SSE
Cosmos 1908 3.9 01:40:50 10° NNW 01:44:20 33° W 01:45:59 23° SW
Cosmos 2285 Rocket 4.2 01:39:20 10° S 01:45:41 76° ESE 01:52:06 10° NNE
Cosmos 407 Rocket 4.2 01:40:44 10° N 01:46:01 60° ENE 01:51:17 10° SSE
USA 129 1.9 01:45:41 42° SW 01:46:10 52° W 01:48:32 10° NNW
SL-14 R/B 3.4 01:44:26 22° SSW 01:46:44 52° W 01:50:33 10° N
SL-08 R/B 3.4 01:42:08 10° S 01:46:48 53° W 01:51:25 10° NNW
Lacrosse 5 3.4 01:45:07 13° W 01:48:29 24° NW 01:52:37 10° NNE
Tianhe-1 2.5 01:46:45 10° WNW 01:49:42 35° N 01:52:37 10° ENE
Spot 4 Rocket 4.1 01:45:07 10° N 01:50:13 65° WNW 01:54:56 12° SSW
Cosmos 2233 Rocket 4.1 01:49:14 10° NNW 01:55:18 56° W 02:01:17 10° SSW
Cosmos 2056 Rocket 3.4 01:52:33 10° SSW 01:57:41 85° WNW 02:02:48 10° NNE
Cosmos 2251 Rocket 4.1 01:56:11 10° NW 02:00:54 35° W 02:05:36 10° SSW
BREEZE-M DEB (TANK) 4.5 01:48:55 10° NW 02:02:52 69° NNE 02:06:37 10° ESE
Cosmos 1697 Rocket 3.1 02:00:22 14° SW 02:04:55 47° WNW 02:10:20 10° N
Cosmos 1371 Rocket 4.2 02:04:20 10° SSW 02:09:30 57° WNW 02:14:40 10° N
COSMOS 2455 3.2 02:05:36 10° NW 02:11:10 41° WSW 02:16:43 10° S
Cosmos 1346 Rocket 4.4 02:08:37 10° SSE 02:12:12 36° E 02:15:48 10° NNE
Cosmos 405 3.6 02:09:14 10° N 02:12:43 61° E 02:16:10 10° SSE
Cosmos 1980 Rocket 2.2 02:07:56 10° SSW 02:13:38 79° WNW 02:19:20 10° NNE
Cosmos 2369 4.0 02:08:38 10° SW 02:14:11 53° WNW 02:19:49 10° NNE
Cosmos 1892 Rocket 4.4 02:10:18 10° S 02:14:32 54° E 02:18:47 10° NNE
PAYLOAD A 4.2 02:10:33 10° N 02:15:05 45° WNW 02:19:32 10° SW
Cosmos 1626 4.1 02:13:44 11° W 02:15:18 14° WNW 02:17:16 10° NW
Meteor 2-5 Rocket 4.2 02:12:43 10° SSW 02:18:16 45° WNW 02:23:43 10° N
Cosmos 2278 3.7 02:13:12 10° SSW 02:18:53 82° WNW 02:24:39 10° NNE
USA 234 3.3 02:13:40 10° NE 02:20:14 81° NW 02:26:46 10° SW
APEX 4.0 02:16:48 10° NNW 02:21:15 83° ENE 02:26:50 10° SSE
CZ-2C R/B 2.9 02:16:51 10° N 02:21:39 44° WNW 02:26:31 10° SW
PSLV R/B 3.5 02:17:37 10° N 02:21:47 67° WNW 02:25:55 10° SSW
Timation 1 Rocket 4.3 02:16:12 10° NNW 02:22:08 68° WSW 02:28:03 10° SSE
Cosmos 2227 Rocket 2.6 02:17:50 10° NW 02:23:07 41° WSW 02:28:21 10° S
Cosmos 2297 Rocket 3.0 02:22:24 10° NW 02:27:10 28° WSW 02:31:55 10° SSW
METEOR-M 4.2 02:25:04 10° NNE 02:30:27 89° ESE 02:35:48 10° SSW
Cosmos 1340 3.5 02:28:00 10° SW 02:31:21 31° WNW 02:34:42 10° NNW
Meteor 1-24 Rocket 4.2 02:26:55 10° SSW 02:32:19 41° WNW 02:37:35 10° N
Cosmos 2082 3.7 02:27:14 10° NNW 02:32:54 71° WSW 02:38:34 10° SSE
ALOS 2.4 02:29:44 10° N 02:34:18 57° WNW 02:38:51 10° SSW
SL-16 R/B 3.5 02:32:15 10° S 02:37:33 42° ESE 02:42:51 10° NE
